Hourly Data Report for July 04, 2006

TORONTO CITY
ONTARIO

43°40'00.000" N
79°24'00.000" W
112.50 m
6158355
71508
XTO

Download Data

Hourly Data (July 2006)
Hourly Data Report for July 4, 2006
TIME
LST
Temp Definition
°C
Dew Point Definition
°C
Rel Hum Definition
%
Precip. Amount Definition
mm

Wind Dir Definition
10's deg

Wind Spd Definition
km/h
Visibility Definition
km
Stn Press Definition
kPa
Hmdx Definition


Wind Chill Definition


Weather Definition


00:00 23.8 20.5 82   LegendMM LegendMM   99.92 32   LegendNANA
01:00 22.8 20.3 86   LegendMM LegendMM   99.87 31   LegendNANA
02:00 21.5 18.2 81   LegendMM LegendMM   99.86 28   LegendNANA
03:00 20.9 17.7 82   LegendMM LegendMM   99.87 27   LegendNANA
04:00 20.5 18.9 91   LegendMM LegendMM   99.82 27   LegendNANA
05:00 19.9 19.3 96   LegendMM LegendMM   99.76     LegendNANA
06:00 20.1 19.7 98   LegendMM LegendMM   99.71 27   LegendNANA
07:00 20.1 19.8 98   LegendMM LegendMM   99.72 28   LegendNANA
08:00 22.0 20.7 92   LegendMM LegendMM   99.70 30   LegendNANA
09:00 22.0 20.9 93   LegendMM LegendMM   99.67 30   LegendNANA
10:00 23.8 21.6 88   LegendMM LegendMM   99.62 33   LegendNANA
11:00 24.9 21.3 80   LegendMM LegendMM   99.59 34   LegendNANA
12:00 26.3 21.8 76   LegendMM LegendMM   99.52 35   LegendNANA
13:00 23.2 20.6 85   LegendMM LegendMM   99.52 31   LegendNANA
14:00 27.8 19.1 59   LegendMM LegendMM   99.50 35   LegendNANA
15:00 28.5 17.4 51   LegendMM LegendMM   99.53 34   LegendNANA
16:00 28.4 15.6 46   LegendMM LegendMM   99.55 33   LegendNANA
17:00 27.2 13.8 44   LegendMM LegendMM   99.63 30   LegendNANA
18:00 25.9 14.5 49   LegendMM LegendMM   99.67 30   LegendNANA
19:00 24.7 13.8 51   LegendMM LegendMM   99.72 28   LegendNANA
20:00 23.1 12.6 52   LegendMM LegendMM   99.82 26   LegendNANA
21:00 21.7 11.8 53   LegendMM LegendMM   99.87     LegendNANA
22:00 20.4 12.2 59   LegendMM LegendMM   99.91     LegendNANA
23:00 18.9 9.3 54   LegendMM LegendMM   99.98     LegendNANA

Notes on Data Quality.

Legend

  • E = Estimated
  • M = Missing
  • NA = Not Available*
  • [empty] = Indicates an unobserved value
Date modified: